DW4563 Weather Reports


time (UTC)temp
F
wind
direction
speed
knots
gust
knots
rain 1hr
in
rain 24hr
in
rain mn
in
humidity
%
barometer
mb
20260502213803 57 12 0.9 1.7 0.00 0.00 0.00 76 1014.1
20260502213304 57 284 0.9 1.7 0.00 0.00 0.00 77 1014.1
20260502211803 58 283 0.9 1.7 0.00 0.00 0.00 76 1014.1
20260502211303 58 282 0.0 1.7 0.00 0.00 0.00 77 1014.1
20260502210303 58 282 0.0 2.6 0.00 0.00 0.00 75 1014.1
20260502204303 59 71 0.9 1.7 0.00 0.00 0.00 73 1014.0
20260502201304 61 317 0.0 0.9 0.00 0.00 0.00 68 1014.4
20260502200803 61 316 0.0 1.7 0.00 0.00 0.00 67 1014.4
20260502194304 62 31 0.9 2.6 0.00 0.00 0.00 69 1014.4
20260502193304 63 350 0.9 2.6 0.00 0.00 0.00 70 1014.3
20260502190803 65 306 2.6 6.1 0.00 0.00 0.00 71 1014.1
20260502190304 65 281 1.7 4.3 0.00 0.00 0.00 70 1014.1
20260502184804 66 284 1.7 2.6 0.00 0.00 0.00 68 1014.1
20260502184303 66 289 0.9 2.6 0.00 0.00 0.00 68 1014.1
20260502183303 67 296 1.7 5.2 0.00 0.00 0.00 68 1014.1
20260502180803 68 290 1.7 6.1 0.00 0.00 0.00 67 1014.2
20260502161804 73 259 2.6 10.4 0.00 0.00 0.00 56 1014.6
20260502161303 73 298 2.6 7.0 0.00 0.00 0.00 57 1014.7
20260502160804 74 228 1.7 7.8 0.00 0.00 0.00 57 1014.7
20260502160304 74 277 2.6 8.7 0.00 0.00 0.00 56 1014.7
20260502123803 74 260 3.5 11.3 0.00 0.00 0.00 43 1016.2
20260502123304 74 247 4.3 10.4 0.00 0.00 0.00 41 1016.2
20260502121804 75 268 4.3 10.4 0.00 0.00 0.00 37 1016.2
20260502121303 77 193 2.6 10.4 0.00 0.00 0.00 37 1016.2
20260502113303 76 255 2.6 6.1 0.00 0.00 0.00 36 1016.4
20260502111304 75 198 2.6 7.8 0.00 0.00 0.00 37 1016.6
20260502110804 74 195 3.5 7.8 0.00 0.00 0.00 36 1016.7
20260502110304 73 186 2.6 7.0 0.00 0.00 0.00 36 1016.7
20260502104303 73 216 2.6 5.2 0.00 0.00 0.00 40 1016.8
20260502103803 73 175 2.6 7.8 0.00 0.00 0.00 38 1016.9
20260502103303 72 233 2.6 7.8 0.00 0.00 0.00 41 1016.9
20260502101804 70 194 2.6 6.1 0.00 0.00 0.00 41 1016.9
20260502101303 70 232 2.6 6.1 0.00 0.00 0.00 43 1016.9
20260502091304 74 188 2.6 7.0 0.00 0.00 0.00 39 1017.1
20260502090803 74 161 2.6 7.8 0.00 0.00 0.00 38 1017.0
20260502071303 64 196 3.5 7.0 0.00 0.00 0.00 49 1017.6
20260502064804 62 207 3.5 7.0 0.00 0.00 0.00 51 1017.7
20260502061804 59 190 2.6 7.8 0.00 0.00 0.00 56 1017.7
20260502053804 55 174 1.7 6.1 0.00 0.00 0.00 59 1018.0
20260502051304 53 183 2.6 4.3 0.00 0.00 0.00 61 1018.0
20260502050804 53 193 1.7 5.2 0.00 0.00 0.00 62 1018.0
20260502044803 53 149 1.7 4.3 0.00 0.00 0.00 62 1018.1
20260502043303 52 166 2.6 5.2 0.00 0.00 0.00 62 1018.0
20260502041314 53 183 1.7 4.3 0.00 0.00 0.00 62 1018.2
20260502040303 53 179 1.7 2.6 0.00 0.00 0.00 62 1018.2
20260502034804 53 167 0.9 4.3 0.00 0.00 0.00 61 1018.3
20260502034303 53 185 0.9 2.6 0.00 0.00 0.00 61 1018.3
20260502031304 54 156 1.7 6.1 0.00 0.00 0.00 60 1018.4
20260502030304 54 172 1.7 2.6 0.00 0.00 0.00 59 1018.5
20260502023803 55 190 2.6 4.3 0.00 0.00 0.00 59 1018.7
20260502023303 55 181 2.6 4.3 0.00 0.00 0.00 59 1018.7
20260502021304 55 170 1.7 4.3 0.00 0.00 0.00 59 1018.9
20260502020804 55 178 1.7 2.6 0.00 0.00 0.00 59 1019.0
20260502020303 54 177 1.7 2.6 0.00 0.00 0.00 60 1019.0
20260502013804 54 144 0.9 1.7 0.00 0.00 0.00 63 1019.2
20260502011803 53 144 0.0 0.9 0.00 0.00 0.00 64 1019.3
20260502011304 53 144 0.0 0.9 0.00 0.00 0.00 65 1019.4
20260502010804 53 144 0.0 0.9 0.00 0.00 0.00 64 1019.4
20260501234804 54 144 0.0 0.0 0.00 0.00 0.00 64 1020.2
20260501233304 55 144 0.0 0.0 0.00 0.00 0.00 64 1020.3
20260501231303 56 144 0.0 0.0 0.00 0.00 0.00 61 1020.4
20260501224304 58 144 0.9 0.9 0.00 0.00 0.00 57 1020.6
20260501223804 58 144 0.0 0.9 0.00 0.00 0.00 57 1020.6
20260501220304 61 144 0.0 1.7 0.00 0.00 0.00 52 1020.7